Overview Statistics Trail Chart Weather Telemetry Raw packets
 

This is the latest recevied weather packets stored in our database for station/object KI5UTS-13. If no packets are shown the sender has not sent any weather packets the latest 10 day(s).

<< 1 2 3 4 5 >>
Time Temp. Humidity Pressure Rain* Wind** Luminosity Snow
1788571616 27.78° C 88% 1015.3 hPa 0 mm - 0 W/m² -
1788571312 27.78° C 88% 1015.3 hPa 0 mm - 0 W/m² -
1788571008 27.78° C 88% 1015.1 hPa 0 mm - 0 W/m² -
1788570704 27.78° C 88% 1015.4 hPa 0 mm - 0 W/m² -
1788570399 27.78° C 87% 1015.2 hPa 0 mm - 0 W/m² -
1788570094 27.78° C 87% 1015.1 hPa 0 mm - 0 W/m² -
1788569790 27.78° C 87% 1015.2 hPa 0 mm - 0 W/m² -
1788569485 27.78° C 87% 1015.3 hPa 0 mm - 0 W/m² -
1788569180 27.78° C 87% 1015.4 hPa 0 mm - 0 W/m² -
1788568875 27.78° C 86% 1015.3 hPa 0 mm - 0 W/m² -
1788568571 28.33° C 86% 1015 hPa 0 mm - 0 W/m² -
1788568266 28.33° C 86% 1015 hPa 0 mm - 0 W/m² -
1788567961 28.33° C 86% 1014.9 hPa 0 mm - 0 W/m² -
1788567655 28.33° C 86% 1015.2 hPa 0 mm - 0 W/m² -
1788567350 28.33° C 86% 1015 hPa 0 mm - 1 W/m² -
1788567045 28.33° C 86% 1015 hPa 0 mm - 3 W/m² -
1788566740 28.33° C 85% 1014.9 hPa 0 mm - 6 W/m² -
1788566437 28.33° C 86% 1015.1 hPa 0 mm - 12 W/m² -
1788566131 28.33° C 85% 1014.9 hPa 0 mm - 20 W/m² -
1788565831 28.33° C 85% 1014.8 hPa 0 mm - 26 W/m² -
1788565531 28.33° C 84% 1015 hPa 0 mm - 30 W/m² -
1788565227 28.89° C 84% 1015 hPa 0 mm - 37 W/m² -
1788564922 28.89° C 83% 1015 hPa 0 mm - 42 W/m² -
1788564618 28.89° C 82% 1014.8 hPa 0 mm - 54 W/m² -
1788564314 28.89° C 83% 1014.7 hPa 0 mm - 52 W/m² -

* Rain latest hour (hover to see other rain measurements)
** Current wind speed in m/s (hover to see current wind gust speed)